"Pseudo-MPEC" for CAD8PW2

Created 2024 May 18 3:22:04 UT using Find_Orb

Click here for an explanation of pseudo-MPECs

 
 Astrometry: 
     CAD8PW2  C2024 04 037ByAK)b^iN[BT_#J1/Q.ORXW1cW#YonUnfwtp_2_gG[u-8ErGvv(F52
     CAD8PW2  C2024 04 039-9V?qih?D6,u04w;!DPv+hu$5K^eSwMm-Fdv4)AJ5p5k+2,`0\7F52
     CAD8PW2*1C2024 04 04.20232511 49 09.440-15 21 20.38   ~4477 21.10GVNEOCPG96
     CAD8PW2 1C2024 04 04.20792111 49 06.186-15 21 33.59   ~4477 20.59GVNEOCPG96
     CAD8PW2 1C2024 04 04.21352211 49 02.942-15 21 45.68   ~4477 21.24GVNEOCPG96
     CAD8PW2 1C2024 04 04.21911911 48 59.706-15 21 57.82   ~4477 20.49GVNEOCPG96
     CAD8PW2 KC2024 04 04.25198511 48 40.700-15 23 11.70   ~447q       VNEOCPI52
     CAD8PW2 KC2024 04 04.25411511 48 39.480-15 23 15.60   ~447q 21.12GVNEOCPI52
     CAD8PW2 KC2024 04 04.25624611 48 38.240-15 23 20.90   ~447q 21.46GVNEOCPI52
     CAD8PW2 KC2024 04 04.25837711 48 37.010-15 23 25.50   ~447q 20.93GVNEOCPI52
     CAD8PW2 |C2024 04 05p$2t9^XYk0,^=,n@,5Du_YgjEM+00BAstrometryh.T(F2;8v!Pn807
     CAD8PW2 |C2024 04 05-Sb'9QK4j_U[^)fnmbN[p(==oXUEY_9f8UmQ`s@QXufp$,eKn9-B807
     CAD8PW2 |C2024 04 05J[k)j6PP)B_Pt#:+[iKRnWq?%dC`QYQ4#h*-rgP1$1ArpWaAc/R4807
     CAD8PW2 KC2024 04 05.21629211 39 24.167-15 58 07.50   ~455b 21.09GVNEOCPI52
     CAD8PW2 KC2024 04 05.21913711 39 22.525-15 58 14.70   ~455b 20.84GVNEOCPI52
     CAD8PW2 KC2024 04 05.22196911 39 20.869-15 58 20.53   ~455b 21.07GVNEOCPI52
     CAD8PW2 KC2024 04 05.22479511 39 19.220-15 58 26.47   ~455b 21.21GVNEOCPI52
     CAD8PW2  C2024 04 05.22906911 39 16.640-15 58 35.94   ~456M 21.0 GVNEOCPH01
     CAD8PW2  C2024 04 05.23340211 39 14.080-15 58 44.92   ~456M 21.3 GVNEOCPH01
     CAD8PW2  C2024 04 05.24633611 39 06.516-15 59 12.69   ~456M 20.9 GVNEOCPH01
     CAD8PW2 KC2024 04 05.25003211 39 04.354-15 59 20.71   ~456M 21.1 GVNEOCPH01
     CAD8PW2 |C2024 04 06O1R//9:hj(E23S^]paredacted;[:YRK@MhPVY7.hFG)hl14XxA=807
     CAD8PW2 |C2024 04 06y$3qen1x6NXH.4'yCJj-B6rVoqQ2p/ygNmSLHCEPm^6O7YS7$:Zn807
     CAD8PW2 |C2024 04 062j=]vOS+NuZv(,xK+NMSf(#Q5o/OO$asAEoKR!S'[)cA'5M/uZbS807
     CAD8PW2 IC2024 04 06fwHuLQSgJuf@suSTV7QSX(I8#^0JQXEW/yy4NeTN8O[m_r1jkIsgL01
     CAD8PW2 KC2024 04 06aPKaumsu%]t$qiKP(TeO9^`))$,VEn,q0GFWAA\Xo`Oq*!f.g;!%L01
     CAD8PW2 KC2024 04 06U^b3kX9J)#LPZGKq%u1Tlo.H[iP=n+!0rFNQ_x4b$wKDHP?Y*1OlL01
     CAD8PW2 KC2024 04 08.31955311 09 00.146-17 40 08.80   ~488M 21.1 GVNEOCPH01
     CAD8PW2 KC2024 04 08.32350811 08 57.796-17 40 16.02   ~488M 21.1 GVNEOCPH01
     CAD8PW2 KC2024 04 08.33439011 08 51.336-17 40 35.35   ~488M 21.2 GVNEOCPH01
     CAD8PW2 KC2024 04 08.34026211 08 47.850-17 40 45.69   ~488M 21.0 GVNEOCPH01
     CAD8PW2 1C2024 04 093d.o%JT[ZM'.XAal]eeZk/\AN9clickErMc'OX`T3A4`Iwrj^d'#Q62
     CAD8PW2 1C2024 04 09Obn8x6f:p9hSWI\506hereH+%forbTZx`y=(B2A@-5rg(:t_dWONQ62
     CAD8PW2 KC2024 04 11.19007910 41 03.437-18 56 50.39   ~4B5M 21.19GVNEOCPI52
     CAD8PW2 KC2024 04 11.19388610 41 01.291-18 56 54.92   ~4B5M 21.47GVNEOCPI52
     CAD8PW2 KC2024 04 11.19769310 40 59.045-18 57 00.14   ~4B5M 20.89GVNEOCPI52
     CAD8PW2 KC2024 04 11.20151310 40 56.856-18 57 06.44   ~4B5M 22.20GVNEOCPI52
     CAD8PW2 KC2024 04 12.24359710 31 02.356-19 20 16.37   ~4C6b 20.52GVNEOCPI52
     CAD8PW2 KC2024 04 12.24900910 30 59.242-19 20 22.42   ~4C6b 20.88GVNEOCPI52
     CAD8PW2 KC2024 04 12.25441010 30 56.164-19 20 28.64   ~4C6b 21.40GVNEOCPI52
     CAD8PW2 KC2024 04 12.25981310 30 53.104-19 20 35.63   ~4C6b 21.22GVNEOCPI52
     CAD8PW2 KC2024 04 14.16587810 13 19.218-19 56 30.48   ~4E4q 21.26GVNEOCPI52
     CAD8PW2 KC2024 04 14.17130710 13 16.273-19 56 35.70   ~4E4q 21.37GVNEOCPI52
     CAD8PW2 KC2024 04 14.17674010 13 13.282-19 56 41.17   ~4E4q 21.11GVNEOCPI52
     CAD8PW2 KC2024 04 14.18217210 13 10.312-19 56 46.03   ~4E4q 21.54GVNEOCPI52
     CAD8PW2  C2024 04 16GwYL:h(N@B'F`0Br+=Nl,FZ4`TN$e#RgTfmnTvwt$uXh=*s4Xf@$F52
     CAD8PW2  C2024 04 16/?.]Ct:P;n.=J*:D#rs[ak@Z%xFW/v/Fs)`ID.e,Ki7?4n8-)yxIF52
     CAD8PW2  C2024 04 16YXZexplanationXYZgUig(LMRJ[qWaaHO\y=5#wm%1%^kFm53ua:F52

Station data:
(807) Cerro Tololo Observatory, La Serena  (S30.169133 W70.805900)  Chile.
   Observer R. Holmes. 0.61-m f/6.5 astrograph + CCD.
(F52) Pan-STARRS 2, Haleakala  (N20.707382 W156.255910)  US/Hawaii.
   Observers J. Bulger, T. Dukes, T. Lowe, A. Schultz, M. Willman. Measurers
   K. Chambers, S. Chastel, T. de Boer, L. Denneau, J. Fairlamb, H.
   Flewelling, M. Huber, C.-C. Lin, E. Magnier, Y. Ramanjooloo, R. Wainscoat,
   R. Weryk. 1.8-m Ritchey-Chrétien + CCD.
(G96) Mt. Lemmon Survey  (N32.442729 W110.788720)  US/Arizona.  Observer E.
   J. Christensen. 1.5-m reflector + 10K CCD.
(H01) Magdalena Ridge Observatory, Socorro  (N33.984833 W107.189333)  US/New
   Mexico.  Observers W. H. Ryan, E. V. Ryan. Measurer W. H. Ryan. 2.4-m
   f/8.9 reflector + CCD.
(I52) Steward Observatory, Mt. Lemmon Station  (N32.442570 W110.788920)
   US/Arizona.  Observers T. A. Pruyne, B. M. Africano, E. J. Christensen, G.
   A. Farneth, D. C. Fuls, A. R. Gibbs, A. D. Grauer, H. Gröller, J. A.
   Johnson, R. A. Kowalski, S. M. Larson, G. J. Leonard, D. Rankin, R. L.
   Seaman, F. C. Shelly, K. W. Wierzchoś. 1.0-m prime focus + CCD.
(L01) Višnjan Observatory, Tičan  (N45.290897 E13.749300)  Croatia.
   Observers K. Korlević, D. Pujagic, V. Dobos. Measurers D. Pujagic, K.
   Korlević. 1.0-m f/2.9 reflector + CCD.
(Q62) iTelescope Observatory, Siding Spring  (S31.273286 E149.064420)
   Australia/NSW.  Observer H. Sato. 0.51-m f/6.8 astrograph + CCD + f/4.5
   focal reducer0.43-m f/6.8 astrograph + CCD + focal reducer0.43-m f/6.8
   astrograph + CCD0.10-m f/5 astrograph + CCD0.127-m f/5.6 refractor +
   CCD0.50-m f/6.8 reflector + CCD0.30-m f/9 reflector + CCD.

Orbital elements:  CAD8PW2
   Perihelion 2024 Jun 15.15342 +/- 0.331 TT =  3:40:55 (JD 2460476.65342)
Epoch 2024 Apr 16.0 TT = JDT 2460416.5   Earth MOID: 0.5744   Ju: 0.8187
q   1.17715324 +/- 0.00351          Ma: 0.0949                   AutoNEOCP
H   20.39 G 0.15                    Peri.  248.70519 +/- 0.32
                                    Node    11.26043 +/- 0.009
e   1.0026968 +/- 0.00807           Incl.   97.59726 +/- 0.13
From 48 observations 2024 Apr. 3-16; mean residual 0".31
Residuals in arcseconds: 
240403 F52  .32+  .22+    240405 I52  .13+  .08-    240409 Q62  .28+  .46-    
240403 F52  .13-  .14-    240405 H01  .20-  .14-    240411 I52  .39-  .40-    
240404 G96  .20+  .49+    240405 H01  .49-  .12+    240411 I52  .51+  .43+    
240404 G96  .13-  .28-    240405 H01  .23-  .07-    240411 I52  .00   .56+    
240404 G96  .25-  .09+    240405 H01  .15-  .22-    240411 I52  .39+  .37-    
240404 G96  .29-  .38+    240406 807  .03+  .41-    240412 I52  .02+  .96-    
240404 I52  .40-  .59-    240406 807  .41+  .12+    240412 I52  .41-  .23-    
240404 I52  .23-  .23+    240406 807  .22-  .25-    240412 I52  .44-  .31+    
240404 I52  .34-  .35-    240406 L01  .51+  .38+    240412 I52  .20-  .07+    
240404 I52  .31-  .23-    240406 L01  .44+  .35+    240414 I52  .08-  .44-    
240405 807  .05-  .24-    240406 L01  .39+  .31+    240414 I52  .15+  .22-    
240405 807  .15-  .19-    240408 H01  .08+  .13+    240414 I52  .24-  .24-    
240405 807  .16-  .02+    240408 H01  .07+  .06-    240414 I52  .35-  .33+    
240405 I52  .40-  .71+    240408 H01  .08+  .05-    240416 F52  .22-  .25-    
240405 I52  .04-  .40-    240408 H01  .07+  .03+    240416 F52  .22-  .23+    
240405 I52  .02+  .18-    240409 Q62  .16-  .01-    240416 F52  .52+  .15+    

Ephemerides (geocentric):
Date (UTC) HH   RA             Dec           delta  r     elong  mag " sig PA
---- --------  ------------   ------------  ------ ------ -----  --- --------
2024 05 18 03  07 31 10.910   -20 55 31.61  1.1813 1.2576  69.5 23.1 1.27  40
2024 05 18 04  07 31 05.944   -20 55 30.31  1.1820 1.2574  69.5 23.1 1.28  41
2024 05 18 05  07 31 00.987   -20 55 29.02  1.1827 1.2571  69.4 23.1 1.29  42
2024 05 18 06  07 30 56.038   -20 55 27.75  1.1834 1.2569  69.4 23.1 1.31  43
2024 05 18 07  07 30 51.098   -20 55 26.48  1.1841 1.2567  69.3 23.1 1.32  44
2024 05 18 08  07 30 46.165   -20 55 25.23  1.1848 1.2565  69.3 23.1 1.33  45
2024 05 18 09  07 30 41.241   -20 55 24.00  1.1855 1.2562  69.2 23.1 1.35  46
2024 05 18 10  07 30 36.325   -20 55 22.78  1.1862 1.2560  69.2 23.1 1.36  47
2024 05 18 11  07 30 31.417   -20 55 21.57  1.1869 1.2558  69.1 23.1 1.38  48
2024 05 18 12  07 30 26.517   -20 55 20.37  1.1876 1.2555  69.1 23.1 1.39  49
2024 05 18 13  07 30 21.625   -20 55 19.19  1.1883 1.2553  69.1 23.1 1.41  50
2024 05 18 14  07 30 16.741   -20 55 18.02  1.1890 1.2551  69.0 23.1 1.42  51
2024 05 18 15  07 30 11.866   -20 55 16.87  1.1897 1.2549  69.0 23.1 1.44  52
2024 05 18 16  07 30 06.998   -20 55 15.73  1.1904 1.2546  68.9 23.1 1.46  52
2024 05 18 17  07 30 02.139   -20 55 14.60  1.1911 1.2544  68.9 23.1 1.47  53
2024 05 18 18  07 29 57.287   -20 55 13.48  1.1918 1.2542  68.8 23.1 1.49  54
2024 05 18 19  07 29 52.443   -20 55 12.38  1.1925 1.2540  68.8 23.1 1.51  55
2024 05 18 20  07 29 47.608   -20 55 11.30  1.1932 1.2537  68.7 23.1 1.53  56
2024 05 18 21  07 29 42.780   -20 55 10.22  1.1939 1.2535  68.7 23.1 1.54  56
2024 05 18 22  07 29 37.960   -20 55 09.16  1.1946 1.2533  68.7 23.1 1.56  57
2024 05 18 23  07 29 33.149   -20 55 08.11  1.1953 1.2531  68.6 23.1 1.58  58
2024 05 19 00  07 29 28.345   -20 55 07.08  1.1960 1.2528  68.6 23.1 1.60  59
2024 05 19 01  07 29 23.548   -20 55 06.06  1.1967 1.2526  68.5 23.1 1.62  59
2024 05 19 02  07 29 18.760   -20 55 05.05  1.1974 1.2524  68.5 23.1 1.64  60
2024 05 19 03  07 29 13.980   -20 55 04.05  1.1980 1.2522  68.4 23.1 1.66  61
2024 05 19 04  07 29 09.207   -20 55 03.07  1.1987 1.2520  68.4 23.1 1.68  61
2024 05 19 05  07 29 04.442   -20 55 02.11  1.1994 1.2517  68.4 23.1 1.70  62
2024 05 19 06  07 28 59.685   -20 55 01.15  1.2001 1.2515  68.3 23.1 1.72  63
2024 05 19 07  07 28 54.936   -20 55 00.21  1.2008 1.2513  68.3 23.1 1.75  63
2024 05 19 08  07 28 50.194   -20 54 59.29  1.2015 1.2511  68.2 23.1 1.77  64
2024 05 19 09  07 28 45.461   -20 54 58.37  1.2022 1.2509  68.2 23.1 1.79  64
2024 05 19 10  07 28 40.734   -20 54 57.47  1.2029 1.2506  68.1 23.1 1.81  65
2024 05 19 11  07 28 36.016   -20 54 56.58  1.2036 1.2504  68.1 23.1 1.83  66
2024 05 19 12  07 28 31.305   -20 54 55.71  1.2043 1.2502  68.0 23.1 1.86  66
2024 05 19 13  07 28 26.602   -20 54 54.85  1.2050 1.2500  68.0 23.1 1.88  67
2024 05 19 14  07 28 21.906   -20 54 54.00  1.2057 1.2498  68.0 23.1 1.90  67
2024 05 19 15  07 28 17.218   -20 54 53.17  1.2064 1.2495  67.9 23.1 1.93  68
2024 05 19 16  07 28 12.538   -20 54 52.35  1.2071 1.2493  67.9 23.1 1.95  68
2024 05 19 17  07 28 07.865   -20 54 51.54  1.2077 1.2491  67.8 23.1 1.97  69
2024 05 19 18  07 28 03.200   -20 54 50.75  1.2084 1.2489  67.8 23.1 2.00  69
2024 05 19 19  07 27 58.542   -20 54 49.97  1.2091 1.2487  67.7 23.1 2.02  70
2024 05 19 20  07 27 53.892   -20 54 49.21  1.2098 1.2484  67.7 23.1 2.05  70
2024 05 19 21  07 27 49.249   -20 54 48.45  1.2105 1.2482  67.7 23.1 2.07  71
2024 05 19 22  07 27 44.613   -20 54 47.71  1.2112 1.2480  67.6 23.1 2.10  71
2024 05 19 23  07 27 39.986   -20 54 46.99  1.2119 1.2478  67.6 23.1 2.12  72
2024 05 20 00  07 27 35.365   -20 54 46.27  1.2126 1.2476  67.5 23.1 2.15  72
2024 05 20 01  07 27 30.752   -20 54 45.57  1.2133 1.2474  67.5 23.1 2.17  73
2024 05 20 02  07 27 26.146   -20 54 44.89  1.2140 1.2472  67.4 23.1 2.20  73